Weather History for KTYS - November, 2012

Change the Weather History Date:

Friday, November 23, 2012

  Actual Average Record
Temperature  
Mean Temperature 51 °F 47 °F  
Max Temperature 62 °F 57 °F 75 °F (1931)
Min Temperature 39 °F 37 °F 17 °F (1880)
Degree Days  
Heating Degree Days 14 18  
Month to date heating degree days 380 328  
Since 1 July heating degree days 616 547  
Cooling Degree Days 0 0  
Month to date cooling degree days 0 0  
Year to date cooling degree days 1725 1523  
Moisture  
Dew Point 39 °F    
Average Humidity 68    
Maximum Humidity 85    
Minimum Humidity 51    
Precipitation  
Precipitation T in 0.14 in 1.38 in (1881)
Month to date precipitation 0.73 2.93  
Year to date precipitation 47.13 42.28  
Snow  
Snow 0.00 in 0.00 in - ()
Month to date snowfall 0.0 0.0  
Since 1 July snowfall 0.0 0.0  
Since 1 September snowfall 0.0 0.0  
Snow Depth 0.00 in    
Sea Level Pressure  
Sea Level Pressure 30.11 in    
Wind  
Wind Speed 7 mph (WSW)    
Max Wind Speed 22 mph    
Max Gust Speed 25 mph    
Visibility 10 miles    
Events Rain    
T = Trace of Precipitation, MM = Missing Value Source: NWS Daily Summary

Daily Weather History Graph

Daily Weather History Graph

Search for Another Location

Airport or City:

Trip Planner

Search our weather history database for the weather conditions in past years. The results will help you decide how hot, cold, wet, or windy it might be!

Date:

Astronomy

Nov. 23, 2012 Rise Set
Actual Time 7:20 AM EST 5:24 PM EST
Civil Twilight 6:52 AM EST 5:51 PM EST
Nautical Twilight 6:21 AM EST 6:23 PM EST
Astronomical Twilight 5:50 AM EST 6:53 PM EST
Moon 2:31 PM EST (11/23) 2:46 AM EST (11/23)
Length of Visible Light 10h 59m
Length of Day
10h 03m
Waxing Gibbous, 79% of the Moon is Illuminated
Nov 23
Waxing Gibbous
Nov 28
Full
Dec 6
Last Quarter
Dec 13
New
Dec 20
First Quarter

Hourly Weather History & Observations

Time (EST) Temp. Windchill Dew Point Humidity Pressure Visibility Wind Dir Wind Speed Gust Speed Precip Events Conditions
12:53 AM 46.0 °F - 37.0 °F 71% 30.14 in 10.0 mi Calm Calm - N/A   Clear
1:53 AM 42.1 °F 40.2 °F 36.0 °F 79% 30.15 in 10.0 mi NE 3.5 mph - N/A   Clear
2:53 AM 41.0 °F - 36.0 °F 82% 30.15 in 10.0 mi Calm Calm - N/A   Clear
3:53 AM 41.0 °F - 36.0 °F 82% 30.17 in 10.0 mi Calm Calm - N/A   Clear
4:53 AM 39.9 °F 35.8 °F 36.0 °F 86% 30.15 in 10.0 mi South 5.8 mph - N/A   Clear
5:53 AM 42.1 °F 40.2 °F 36.0 °F 79% 30.15 in 10.0 mi SW 3.5 mph - N/A   Clear
6:53 AM 41.0 °F - 36.0 °F 82% 30.14 in 10.0 mi Calm Calm - N/A   Clear
7:53 AM 43.0 °F 40.3 °F 37.0 °F 80% 30.12 in 10.0 mi South 4.6 mph - N/A   Scattered Clouds
8:53 AM 48.9 °F - 42.1 °F 77% 30.11 in 10.0 mi SSW 4.6 mph - N/A   Partly Cloudy
9:53 AM 57.9 °F - 45.0 °F 62% 30.09 in 10.0 mi SW 4.6 mph - N/A   Mostly Cloudy
10:53 AM 60.1 °F - 42.1 °F 51% 30.09 in 10.0 mi SW 12.7 mph - N/A   Partly Cloudy
11:53 AM 62.1 °F - 44.1 °F 52% 30.05 in 10.0 mi SW 12.7 mph - N/A   Mostly Cloudy
12:53 PM 59.0 °F - 43.0 °F 55% 30.04 in 10.0 mi WSW 11.5 mph - N/A   Overcast
1:53 PM 57.9 °F - 43.0 °F 58% 30.04 in 10.0 mi West 13.8 mph - N/A   Overcast
2:14 PM 57.2 °F - 44.6 °F 63% 30.04 in 10.0 mi West 15.0 mph - N/A   Overcast
2:53 PM 55.0 °F - 46.0 °F 72% 30.06 in 10.0 mi West 16.1 mph 24.2 mph N/A   Overcast
3:53 PM 52.0 °F - 48.0 °F 86% 30.06 in 10.0 mi WSW 9.2 mph - 0.00 in   Drizzle
4:03 PM 53.6 °F - 48.2 °F 82% 30.06 in 10.0 mi WSW 8.1 mph - 0.00 in   Mostly Cloudy
4:53 PM 52.0 °F - 41.0 °F 66% 30.09 in 10.0 mi WSW 10.4 mph - 0.00 in   Scattered Clouds
5:53 PM 46.0 °F 41.4 °F 39.9 °F 79% 30.11 in 10.0 mi SW 9.2 mph - N/A   Scattered Clouds
6:53 PM 46.0 °F 42.5 °F 36.0 °F 68% 30.12 in 10.0 mi WSW 6.9 mph - N/A   Partly Cloudy
7:53 PM 45.0 °F 41.2 °F 33.1 °F 63% 30.13 in 10.0 mi West 6.9 mph - N/A   Partly Cloudy
8:53 PM 43.0 °F 38.8 °F 30.0 °F 60% 30.13 in 10.0 mi West 6.9 mph - N/A   Clear
9:53 PM 45.0 °F 43.5 °F 28.0 °F 52% 30.12 in 10.0 mi NW 3.5 mph - N/A   Clear
10:53 PM 44.1 °F 41.5 °F 28.0 °F 53% 30.12 in 10.0 mi WNW 4.6 mph - N/A   Clear
11:53 PM 42.1 °F 38.4 °F 28.9 °F 60% 30.12 in 10.0 mi NNW 5.8 mph - N/A   Clear